1530410401.2,11168,14.75,73316.5,-3.69,-4.33,-4.33,0,*53
1530410402.4,11169,14.75,73320.5,-3.69,-4.33,-4.37,0,*56
1530410403.6,11170,14.75,73322.5,-3.69,-4.37,-4.37,0,*5A
1530410404.83,11171,14.75,73320.5,-3.71,-4.25,-4.33,0,*55
1530410406.02,11172,14.75,73320.3,-3.69,-4.37,-4.37,0,*58
1530410407.25,11173,14.75,73316.5,-3.71,-4.33,-4.33,0,*50
1530410408.44,11174,14.75,73318.0,-3.69,-4.37,-4.33,0,*5A
1530410409.66,11175,14.75,73320.5,-3.71,-4.37,-4.37,0,*56
1530410410.89,11176,14.75,73316.3,-3.67,-4.33,-4.41,0,*57
1530410412.09,11177,14.75,73312.8,-3.69,-4.49,-4.49,0,*5D
1530410413.29,11178,14.75,73318.5,-3.71,-4.45,-4.45,0,*5B
1530410414.5,11179,14.75,73322.0,-3.69,-4.33,-4.37,0,*57
1530410415.7,11180,14.75,73316.5,-3.69,-4.33,-4.33,0,*55
1530410416.9,11181,14.75,73314.3,-3.69,-4.37,-4.37,0,*54
1530410418.1,11182,14.75,73312.5,-3.69,-4.37,-4.37,0,*57
1530410419.31,11183,14.75,73314.8,-3.71,-4.45,-4.37,0,*5A
1530410420.53,11184,14.75,73312.3,-3.71,-4.45,-4.37,0,*5D
1530410421.73,11185,14.75,73312.5,-3.69,-4.37,-4.37,0,*50
1530410422.92,11186,14.75,73312.8,-3.69,-4.49,-4.45,0,*5F
1530410424.11,11187,14.75,73318.0,-3.69,-4.45,-4.45,0,*52
1530410425.33,11188,14.75,73320.8,-3.71,-4.37,-4.37,0,*54
1530410426.51,11189,14.75,73312.8,-3.69,-4.45,-4.45,0,*5C
1530410427.73,11190,14.75,73318.3,-3.71,-4.49,-4.49,0,*5D
1530410428.94,11191,14.75,73316.5,-3.71,-4.49,-4.45,0,*50
1530410430.16,11192,14.75,73316.0,-3.71,-4.49,-4.49,0,*5F
1530410431.37,11193,14.75,73316.8,-3.71,-4.45,-4.49,0,*52
1530410432.57,11194,14.75,73316.0,-3.69,-4.49,-4.49,0,*50
1530410433.77,11195,14.75,73318.3,-3.71,-4.45,-4.45,0,*58
1530410434.97,11196,14.75,73318.8,-3.69,-4.37,-4.45,0,*57
1530410436.18,11197,14.75,73316.5,-3.71,-4.49,-4.49,0,*5A
1530410437.4,11198,14.75,73322.5,-3.71,-4.49,-4.49,0,*55
1530410438.61,11199,14.75,73322.5,-3.71,-4.49,-4.49,0,*54
1530410439.83,11200,14.75,73318.8,-3.71,-4.49,-4.49,0,*57
1530410441.04,11201,14.75,73316.3,-3.71,-4.49,-4.49,0,*56
1530410442.26,11202,14.75,73322.5,-3.71,-4.49,-4.49,0,*55
1530410443.45,11203,14.75,73320.3,-3.69,-4.45,-4.49,0,*51
1530410444.67,11204,14.75,73318.5,-3.71,-4.45,-4.49,0,*5F
1530410445.87,11205,14.75,73316.0,-3.71,-4.45,-4.45,0,*52
1530410447.09,11206,14.75,73316.0,-3.71,-4.49,-4.37,0,*58
1530410448.31,11207,14.75,73316.3,-3.71,-4.37,-4.33,0,*54
1530410449.53,11208,14.75,73314.5,-3.71,-4.37,-4.37,0,*5F
1530410450.74,11209,14.75,73312.3,-3.71,-4.45,-4.45,0,*5E
1530410451.95,11210,14.75,73318.0,-3.71,-4.37,-4.37,0,*56
1530410453.17,11211,14.75,73320.3,-3.71,-4.37,-4.37,0,*57
1530410454.4,11212,14.75,73322.0,-3.73,-4.41,-4.41,0,*56
1530410455.63,11213,14.75,73318.5,-3.73,-4.41,-4.37,0,*56
1530410456.85,11214,14.75,73316.3,-3.73,-4.37,-4.41,0,*51
1530410458.06,11215,14.75,73312.8,-3.71,-4.37,-4.33,0,*57
1530410459.28,11216,14.75,73312.5,-3.71,-4.37,-4.45,0,*55
1530410460.48,11217,14.69,73312.3,-3.71,-4.45,-4.45,0,*51
1530410461.68,11218,14.75,73320.5,-3.69,-4.37,-4.37,0,*57
1530410462.91,11219,14.75,73322.3,-3.73,-4.37,-4.37,0,*5D
1530410464.13,11220,14.75,73326.5,-3.71,-4.33,-4.33,0,*55
1530410465.36,11221,14.75,73326.5,-3.71,-4.33,-4.25,0,*53
1530410466.58,11222,14.75,73320.8,-3.73,-4.41,-4.41,0,*55
1530410467.8,11223,14.75,73316.5,-3.73,-4.53,-4.49,0,*5F
1530410469.03,11224,14.75,73316.0,-3.73,-4.49,-4.53,0,*58
1530410470.25,11225,14.75,73318.8,-3.73,-4.53,-4.49,0,*59
1530410471.48,11226,14.75,73320.0,-3.73,-4.49,-4.53,0,*5A
1530410472.7,11227,14.75,73322.8,-3.73,-4.53,-4.49,0,*5B
1530410473.92,11228,14.75,73324.0,-3.73,-4.49,-4.41,0,*57
1530410475.14,11229,14.75,73320.3,-3.73,-4.41,-4.41,0,*5E
1530410476.37,11230,14.75,73318.3,-3.73,-4.41,-4.37,0,*57
1530410477.6,11231,14.75,73318.0,-3.73,-4.41,-4.41,0,*57
1530410478.82,11232,14.75,73316.8,-3.73,-4.37,-4.37,0,*54
1530410480.05,11233,14.75,73318.5,-3.73,-4.37,-4.37,0,*55
1530410481.27,11234,14.75,73316.0,-3.73,-4.49,-4.41,0,*5A
1530410482.49,11235,14.75,73316.3,-3.71,-4.37,-4.37,0,*51
1530410483.7,11236,14.75,73314.8,-3.71,-4.37,-4.33,0,*56
1530410484.9,11237,14.75,73318.3,-3.75,-4.41,-4.37,0,*56
1530410486.1,11238,14.75,73320.3,-3.75,-4.41,-4.41,0,*58
1530410487.32,11239,14.75,73320.0,-3.73,-4.37,-4.37,0,*5F
1530410488.54,11240,14.75,73318.3,-3.73,-4.37,-4.29,0,*5E
1530410489.77,11241,14.69,73312.0,-3.71,-4.33,-4.33,0,*52
1530410490.99,11242,14.75,73318.5,-3.71,-4.37,-4.37,0,*51
1530410492.2,11243,14.75,73326.3,-3.71,-4.37,-4.37,0,*50
1530410493.42,11244,14.75,73322.8,-3.71,-4.37,-4.33,0,*53
1530410494.63,11245,14.75,73324.3,-3.71,-4.45,-4.37,0,*53
1530410495.84,11246,14.75,73316.3,-3.71,-4.45,-4.45,0,*55
1530410497.06,11247,14.75,73324.0,-3.71,-4.49,-4.37,0,*5D
1530410498.28,11248,14.75,73324.8,-3.71,-4.33,-4.33,0,*5B
1530410499.5,11249,14.75,73320.3,-3.71,-4.37,-4.33,0,*5E
1530410500.71,11250,14.69,73316.5,-3.71,-4.37,-4.45,0,*57
1530410501.93,11251,14.75,73316.8,-3.71,-4.33,-4.33,0,*53
1530410503.15,11252,14.75,73318.5,-3.71,-4.37,-4.33,0,*54
1530410504.37,11253,14.75,73320.8,-3.71,-4.37,-4.37,0,*51
1530410505.58,11254,14.75,73320.0,-3.71,-4.37,-4.33,0,*52
1530410506.78,11255,14.75,73324.8,-3.69,-4.37,-4.33,0,*5A
1530410508.0,11256,14.75,73328.3,-3.71,-4.33,-4.33,0,*54
1530410509.22,11257,14.75,73326.5,-3.71,-4.33,-4.33,0,*55
1530410510.44,11258,14.75,73322.0,-3.71,-4.37,-4.37,0,*5A
1530410511.66,11259,14.75,73320.8,-3.71,-4.37,-4.33,0,*5F
1530410512.87,11260,14.75,73322.3,-3.71,-4.45,-4.37,0,*54
1530410514.09,11261,14.75,73320.5,-3.71,-4.49,-4.45,0,*5C
1530410515.3,11262,14.75,73320.0,-3.71,-4.45,-4.49,0,*5F
1530410516.52,11263,14.75,73326.5,-3.71,-4.37,-4.37,0,*52
1530410517.73,11264,14.75,73326.5,-3.71,-4.37,-4.25,0,*56
1530410518.94,11265,14.75,73322.0,-3.69,-4.33,-4.25,0,*5A
1530410520.16,11266,14.75,73326.5,-3.71,-4.37,-4.33,0,*53
1530410521.38,11267,14.75,73324.8,-3.71,-4.33,-4.37,0,*52
1530410522.61,11268,14.75,73328.0,-3.73,-4.41,-4.37,0,*5A
1530410523.83,11269,14.75,73326.3,-3.73,-4.41,-4.41,0,*5A
1530410525.05,11270,14.75,73324.5,-3.71,-4.37,-4.45,0,*55
1530410526.26,11271,14.75,73328.5,-3.71,-4.45,-4.37,0,*54
1530410527.49,11272,14.75,73330.8,-3.73,-4.41,-4.41,0,*50
1530410528.71,11273,14.75,73330.3,-3.73,-4.53,-4.49,0,*5A
1530410529.93,11274,14.75,73326.0,-3.73,-4.53,-4.53,0,*56
1530410531.15,11275,14.75,73322.3,-3.71,-4.53,-4.61,0,*54
1530410532.42,11276,14.75,73318.8,-3.73,-4.77,-4.81,0,*5D
1530410533.66,11277,14.75,73316.8,-3.73,-4.57,-4.57,0,*55
1530410534.88,11278,14.75,73316.0,-3.73,-4.53,-4.57,0,*5E
1530410536.1,11279,14.75,73316.3,-3.73,-4.49,-4.49,0,*5B
1530410537.3,11280,14.75,73316.5,-3.75,-4.49,-4.41,0,*53
1530410538.49,11281,14.75,73316.5,-3.75,-4.53,-4.53,0,*5A
1530410539.71,11282,14.75,73316.3,-3.73,-4.49,-4.49,0,*5F
1530410540.94,11283,14.69,73316.0,-3.73,-4.41,-4.49,0,*56
1530410542.16,11284,14.69,73320.8,-3.73,-4.49,-4.41,0,*51
1530410543.38,11285,14.75,73320.8,-3.73,-4.49,-4.49,0,*58
1530410544.61,11286,14.75,73326.3,-3.73,-4.41,-4.49,0,*53
1530410545.83,11287,14.75,73326.3,-3.73,-4.41,-4.37,0,*5B
1530410547.06,11288,14.75,73324.3,-3.73,-4.37,-4.37,0,*55
1530410548.28,11289,14.75,73322.5,-3.73,-4.49,-4.41,0,*5C
1530410549.5,11290,14.75,73322.3,-3.73,-4.53,-4.49,0,*57
1530410550.7,11291,14.75,73320.3,-3.75,-4.53,-4.53,0,*5B
1530410551.9,11292,14.75,73324.5,-3.75,-4.57,-4.57,0,*58
1530410553.12,11293,14.75,73322.3,-3.73,-4.49,-4.49,0,*5F
1530410554.31,11294,14.75,73322.8,-3.75,-4.49,-4.49,0,*5E
1530410555.51,11295,14.75,73318.5,-3.75,-4.53,-4.53,0,*5F
1530410556.74,11296,14.75,73318.5,-3.73,-4.57,-4.53,0,*5E
1530410557.94,11297,14.75,73316.8,-3.75,-4.57,-4.53,0,*59
1530410559.14,11298,14.75,73318.8,-3.75,-4.57,-4.49,0,*5D
1530410560.37,11299,14.75,73316.5,-3.73,-4.53,-4.37,0,*57
1530410561.56,11300,14.75,73314.0,-3.75,-4.49,-4.37,0,*5B
1530410562.79,11301,14.75,73314.8,-3.73,-4.41,-4.41,0,*55
1530410563.98,11302,14.75,73316.5,-3.75,-4.37,-4.37,0,*50
1530410565.17,11303,14.75,73318.8,-3.75,-4.37,-4.37,0,*51
1530410566.4,11304,14.75,73316.0,-3.73,-4.41,-4.37,0,*51
1530410567.62,11305,14.75,73312.0,-3.73,-4.49,-4.41,0,*59
1530410568.85,11306,14.75,73314.5,-3.73,-4.41,-4.49,0,*5A
1530410570.07,11307,14.75,73316.3,-3.73,-4.37,-4.41,0,*52
1530410571.27,11308,14.75,73316.5,-3.75,-4.41,-4.41,0,*5A
1530410572.49,11309,14.75,73314.8,-3.73,-4.41,-4.41,0,*5D
1530410573.69,11310,14.75,73314.5,-3.75,-4.41,-4.41,0,*53
1530410574.89,11311,14.75,73318.8,-3.75,-4.41,-4.37,0,*53
1530410576.11,11312,14.69,73312.3,-3.73,-4.37,-4.37,0,*57
1530410577.33,11313,14.75,73316.3,-3.73,-4.37,-4.41,0,*57
1530410578.56,11314,14.69,73312.5,-3.73,-4.29,-4.41,0,*5F
1530410579.78,11315,14.69,73312.3,-3.73,-4.37,-4.37,0,*50
1530410580.98,11316,14.69,73312.8,-3.75,-4.37,-4.37,0,*55
1530410582.17,11317,14.75,73316.3,-3.75,-4.37,-4.41,0,*55
1530410583.39,11318,14.75,73320.3,-3.73,-4.37,-4.37,0,*5D
1530410584.59,11319,14.75,73326.0,-3.75,-4.37,-4.41,0,*5B
1530410585.79,11320,14.75,73328.5,-3.75,-4.41,-4.37,0,*51
1530410586.98,11321,14.75,73320.8,-3.75,-4.41,-4.37,0,*50
1530410588.18,11322,14.75,73322.0,-3.75,-4.37,-4.41,0,*53
1530410589.4,11323,14.75,73318.5,-3.73,-4.37,-4.41,0,*54
1530410590.62,11324,14.75,73316.3,-3.73,-4.37,-4.37,0,*52
1530410591.85,11325,14.75,73316.8,-3.73,-4.41,-4.41,0,*53
1530410593.04,11326,14.75,73316.8,-3.75,-4.53,-4.49,0,*5D
1530410594.27,11327,14.69,73314.3,-3.73,-4.53,-4.53,0,*51
1530410595.46,11328,14.75,73316.5,-3.75,-4.49,-4.49,0,*58
1530410596.65,11329,14.75,73318.3,-3.75,-4.53,-4.53,0,*59
1530410597.85,11330,14.75,73312.5,-3.75,-4.49,-4.53,0,*5A
1530410599.04,11331,14.75,73316.8,-3.75,-4.49,-4.49,0,*50
1530410600.26,11332,14.75,73316.0,-3.73,-4.49,-4.49,0,*55
1530410601.46,11333,14.69,73306.3,-3.75,-4.41,-4.41,0,*52
1530410602.65,11334,14.75,73304.5,-3.75,-4.41,-4.41,0,*55
1530410603.85,11335,14.75,73310.8,-3.75,-4.41,-4.37,0,*55
1530410605.04,11336,14.75,73308.8,-3.75,-4.37,-4.41,0,*56
1530410606.24,11337,14.75,73310.3,-3.75,-4.37,-4.37,0,*56
1530410607.46,11338,14.75,73306.8,-3.73,-4.37,-4.41,0,*5E
1530410608.66,11339,14.75,73302.5,-3.75,-4.37,-4.37,0,*58
1530410609.85,11340,14.69,73300.0,-3.75,-4.41,-4.37,0,*57
1530410611.05,11341,14.75,73302.3,-3.75,-4.41,-4.37,0,*56
1530410612.25,11342,14.75,73306.5,-3.75,-4.37,-4.37,0,*54
1530410613.47,11343,14.75,73306.5,-3.73,-4.37,-4.29,0,*5C
1530410614.7,11344,14.69,73304.3,-3.73,-4.29,-4.29,0,*54
1530410615.92,11345,14.69,73302.3,-3.73,-4.37,-4.37,0,*55
1530410617.15,11346,14.69,73304.0,-3.73,-4.41,-4.41,0,*56
1530410618.34,11347,14.69,73304.8,-3.75,-4.41,-4.41,0,*51
1530410619.57,11348,14.69,73304.0,-3.73,-4.41,-4.37,0,*59
1530410620.8,11349,14.75,73308.5,-3.73,-4.41,-4.37,0,*58
1530410621.99,11350,14.69,73308.5,-3.75,-4.37,-4.37,0,*57
1530410623.22,11351,14.75,73310.5,-3.73,-4.37,-4.37,0,*50
1530410624.44,11352,14.75,73308.5,-3.73,-4.37,-4.41,0,*52
1530410625.67,11353,14.69,73306.5,-3.73,-4.29,-4.37,0,*5D
1530410626.89,11354,14.75,73308.0,-3.73,-4.37,-4.41,0,*54
1530410628.12,11355,14.75,73306.5,-3.73,-4.37,-4.37,0,*54
1530410629.31,11356,14.75,73306.8,-3.75,-4.37,-4.41,0,*50
1530410630.54,11357,14.75,73308.8,-3.73,-4.41,-4.37,0,*57
1530410631.76,11358,14.75,73308.5,-3.73,-4.37,-4.37,0,*59
1530410632.99,11359,14.75,73312.8,-3.73,-4.37,-4.25,0,*5B
1530410634.21,11360,14.75,73308.5,-3.73,-4.37,-4.29,0,*5D
1530410635.43,11361,14.75,73308.3,-3.73,-4.37,-4.37,0,*53
1530410636.63,11362,14.69,73306.3,-3.75,-4.29,-4.29,0,*56
1530410637.86,11363,14.75,73312.8,-3.73,-4.37,-4.29,0,*5E
1530410639.06,11364,14.75,73316.3,-3.75,-4.25,-4.29,0,*5C
1530410640.29,11365,14.69,73314.3,-3.73,-4.29,-4.25,0,*5B
1530410641.52,11366,14.75,73316.5,-3.73,-4.25,-4.29,0,*58
1530410642.75,11367,14.69,73312.3,-3.73,-4.41,-4.37,0,*54
1530410643.94,11368,14.75,73320.3,-3.75,-4.37,-4.29,0,*53
1530410645.17,11369,14.75,73316.5,-3.71,-4.25,-4.25,0,*59
1530410646.4,11370,14.75,73318.3,-3.71,-4.25,-4.21,0,*55
1530410647.62,11371,14.75,73316.0,-3.71,-4.33,-4.25,0,*57
1530410648.85,11372,14.75,73314.8,-3.73,-4.29,-4.29,0,*51
1530410650.09,11373,14.75,73318.0,-3.73,-4.25,-4.29,0,*5C
1530410651.31,11374,14.75,73318.8,-3.73,-4.29,-4.25,0,*5B
1530410652.54,11375,14.69,73314.8,-3.73,-4.37,-4.29,0,*59
1530410653.77,11376,14.69,73316.3,-3.73,-4.29,-4.29,0,*55
1530410655.0,11377,14.75,73316.8,-3.73,-4.25,-4.29,0,*58
1530410656.23,11378,14.69,73316.0,-3.71,-4.25,-4.25,0,*59
1530410657.46,11379,14.75,73316.8,-3.71,-4.25,-4.21,0,*5C
1530410658.69,11380,14.75,73316.8,-3.71,-4.33,-4.21,0,*5D
1530410659.91,11381,14.75,73316.5,-3.71,-4.25,-4.21,0,*5B
1530410661.14,11382,14.69,73318.3,-3.71,-4.25,-4.25,0,*5C
1530410662.37,11383,14.75,73320.3,-3.71,-4.25,-4.25,0,*5D
1530410663.6,11384,14.75,73320.5,-3.71,-4.21,-4.21,0,*5A
1530410664.83,11385,14.75,73318.0,-3.71,-4.25,-4.25,0,*5B
1530410666.06,11386,14.69,73316.8,-3.71,-4.21,-4.21,0,*58
1530410667.29,11387,14.69,73316.0,-3.71,-4.25,-4.25,0,*59
1530410668.52,11388,14.69,73322.3,-3.71,-4.21,-4.25,0,*52
1530410669.75,11389,14.69,73320.5,-3.71,-4.25,-4.21,0,*53
1530410670.98,11390,14.75,73320.5,-3.71,-4.21,-4.21,0,*5F
1530410672.21,11391,14.69,73318.0,-3.71,-4.25,-4.21,0,*5A
1530410673.44,11392,14.75,73326.5,-3.71,-4.21,-4.21,0,*5D
1530410674.65,11393,14.75,73324.8,-3.69,-4.25,-4.21,0,*51
1530410675.89,11394,14.75,73322.3,-3.71,-4.21,-4.21,0,*5B
1530410677.12,11395,14.69,73322.0,-3.71,-4.21,-4.21,0,*5A
1530410678.32,11396,14.69,73316.0,-3.69,-4.33,-4.37,0,*54
1530410679.53,11397,14.75,73318.8,-3.69,-4.25,-4.21,0,*55
1530410680.76,11398,14.69,73312.3,-3.71,-4.25,-4.21,0,*53
1530410681.97,11399,14.75,73318.5,-3.69,-4.25,-4.21,0,*5B
1530410683.2,11400,14.69,73314.8,-3.71,-4.25,-4.25,0,*51
1530410684.43,11401,14.69,73314.8,-3.71,-4.21,-4.25,0,*54
1530410685.66,11402,14.75,73316.3,-3.71,-4.21,-4.21,0,*53
1530410686.87,11403,14.75,73314.5,-3.69,-4.25,-4.21,0,*5F
1530410688.1,11404,14.75,73316.0,-3.71,-4.25,-4.21,0,*51
1530410689.33,11405,14.69,73318.0,-3.71,-4.21,-4.21,0,*54
1530410690.56,11406,14.69,73316.8,-3.71,-4.25,-4.21,0,*53
1530410691.78,11407,14.69,73318.0,-3.69,-4.21,-4.21,0,*5F
1530410692.99,11408,14.69,73308.8,-3.69,-4.25,-4.21,0,*54
1530410694.21,11409,14.75,73312.0,-3.71,-4.25,-4.25,0,*58
1530410695.42,11410,14.69,73312.5,-3.69,-4.25,-4.21,0,*5D
1530410696.65,11411,14.75,73312.3,-3.71,-4.25,-4.25,0,*51
1530410697.86,11412,14.69,73312.3,-3.69,-4.25,-4.21,0,*5F
1530410699.09,11413,14.69,73312.5,-3.71,-4.21,-4.25,0,*57
1530410700.3,11414,14.69,73312.8,-3.69,-4.25,-4.21,0,*59
1530410701.5,11415,14.69,73314.5,-3.69,-4.25,-4.25,0,*5C
1530410702.73,11416,14.69,73312.5,-3.71,-4.21,-4.25,0,*52
1530410703.94,11417,14.69,73316.3,-3.69,-4.25,-4.25,0,*5E
1530410705.15,11418,14.69,73318.0,-3.69,-4.25,-4.21,0,*55
1530410706.38,11419,14.69,73318.0,-3.71,-4.21,-4.21,0,*59
1530410707.61,11420,14.69,73318.3,-3.71,-4.25,-4.21,0,*57
1530410708.84,11421,14.75,73322.0,-3.71,-4.21,-4.21,0,*52
1530410710.07,11422,14.69,73314.3,-3.71,-4.25,-4.21,0,*55
1530410711.31,11423,14.69,73312.0,-3.71,-4.21,-4.21,0,*50
1530410712.52,11424,14.69,73316.0,-3.69,-4.21,-4.21,0,*5E
1530410713.73,11425,14.75,73322.0,-3.69,-4.25,-4.25,0,*5F
1530410714.93,11426,14.69,73318.8,-3.69,-4.25,-4.25,0,*5C
1530410716.14,11427,14.69,73316.5,-3.69,-4.33,-4.25,0,*5A
1530410717.36,11428,14.75,73320.0,-3.71,-4.33,-4.33,0,*5B
1530410718.57,11429,14.69,73322.3,-3.69,-4.25,-4.21,0,*57
1530410719.78,11430,14.69,73320.5,-3.69,-4.21,-4.25,0,*5F
1530410721.01,11431,14.69,73322.8,-3.71,-4.33,-4.25,0,*54
1530410722.21,11432,14.69,73320.8,-3.69,-4.25,-4.25,0,*59
1530410723.42,11433,14.69,73320.8,-3.69,-4.21,-4.25,0,*5C
1530410724.63,11434,14.69,73320.0,-3.69,-4.25,-4.21,0,*5B
1530410725.84,11435,14.75,73324.3,-3.69,-4.25,-4.25,0,*5E
1530410727.05,11436,14.75,73324.8,-3.69,-4.21,-4.21,0,*5D
1530410728.26,11437,14.69,73326.0,-3.69,-4.21,-4.21,0,*5C
1530410729.46,11438,14.69,73324.0,-3.69,-4.25,-4.09,0,*5D
1530410730.67,11439,14.69,73324.5,-3.69,-4.25,-4.09,0,*5C
1530410731.87,11440,14.69,73326.3,-3.69,-4.21,-4.13,0,*5D
1530410733.09,11441,14.75,73326.5,-3.69,-4.21,-4.21,0,*5D
1530410734.31,11442,14.69,73324.8,-3.67,-4.21,-4.17,0,*55
1530410735.54,11443,14.69,73322.8,-3.67,-4.17,-4.09,0,*5E
1530410736.77,11444,14.69,73322.3,-3.71,-4.21,-4.25,0,*55
1530410737.98,11445,14.69,73320.5,-3.69,-4.33,-4.25,0,*5E
1530410739.19,11446,14.69,73324.0,-3.69,-4.25,-4.21,0,*5E
1530410740.4,11447,14.69,73326.8,-3.69,-4.21,-4.21,0,*5B
1530410741.61,11448,14.69,73322.5,-3.69,-4.25,-4.21,0,*50
1530410742.82,11449,14.69,73322.0,-3.69,-4.21,-4.21,0,*55
1530410744.05,11450,14.69,73320.3,-3.67,-4.17,-4.09,0,*5C
1530410745.27,11451,14.69,73322.8,-3.67,-4.17,-4.09,0,*5D
1530410746.49,11452,14.69,73318.5,-3.67,-4.09,-4.09,0,*51
1530410747.72,11453,14.69,73314.0,-3.67,-4.09,-4.17,0,*5F
1530410748.95,11454,14.69,73322.5,-3.67,-4.09,-4.21,0,*5D
1530410750.17,11455,14.69,73324.5,-3.67,-4.17,-4.17,0,*56
1530410751.4,11456,14.69,73322.8,-3.67,-4.17,-4.09,0,*5A
1530410752.62,11457,14.69,73320.8,-3.67,-4.17,-4.09,0,*5B
1530410753.85,11458,14.69,73324.3,-3.67,-4.17,-4.09,0,*54
1530410755.07,11459,14.69,73324.0,-3.67,-4.09,-4.09,0,*5A
1530410756.27,11460,14.69,73328.5,-3.65,-4.09,-4.05,0,*5E
1530410757.47,11461,14.69,73330.5,-3.65,-4.05,-4.05,0,*53
1530410758.7,11462,14.69,73328.8,-3.67,-4.09,-4.05,0,*5E
1530410759.9,11463,14.69,73326.0,-3.65,-4.05,-4.09,0,*5D
1530410761.12,11464,14.69,73326.8,-3.67,-4.05,-4.05,0,*54
1530410762.35,11465,14.69,73322.5,-3.67,-4.09,-4.05,0,*59
1530410763.55,11466,14.69,73324.0,-3.65,-4.05,-4.09,0,*58
1530410764.75,11467,14.69,73328.8,-3.65,-4.09,-4.09,0,*55
1530410765.95,11468,14.69,73330.5,-3.65,-4.09,-4.09,0,*5A
1530410767.15,11469,14.69,73326.5,-3.65,-4.05,-4.09,0,*57
1530410768.35,11470,14.69,73326.0,-3.65,-4.09,-4.05,0,*5F
1530410769.57,11471,14.69,73324.0,-3.67,-4.05,-4.05,0,*50
1530410770.77,11472,14.75,73326.5,-3.65,-4.09,-4.05,0,*5D
1530410771.97,11473,14.69,73326.0,-3.65,-4.09,-4.05,0,*5C
1530410773.17,11474,14.69,73326.5,-3.65,-4.17,-4.17,0,*57
1530410774.36,11475,14.69,73326.3,-3.65,-4.09,-4.17,0,*59
1530410775.59,11476,14.75,73326.3,-3.67,-4.09,-4.09,0,*57
1530410776.82,11477,14.69,73324.5,-3.67,-4.09,-4.09,0,*56
1530410778.01,11478,14.69,73324.8,-3.65,-4.09,-4.05,0,*57
1530410779.21,11479,14.69,73326.0,-3.65,-4.09,-4.05,0,*56
1530410780.41,11480,14.69,73324.5,-3.61,-4.05,-4.05,0,*58
1530410781.65,11481,14.69,73324.0,-3.61,-4.01,-4.05,0,*5D
1530410782.9,11482,14.69,73322.3,-3.61,-4.01,-4.01,0,*5A
1530410784.1,11483,14.69,73326.5,-3.65,-4.09,-4.09,0,*5F
1530410785.3,11484,14.69,73324.3,-3.65,-4.17,-4.09,0,*57
1530410786.49,11485,14.69,73326.5,-3.61,-4.13,-4.17,0,*59
1530410787.69,11486,14.69,73328.0,-3.61,-4.17,-4.17,0,*5E
1530410788.89,11487,14.69,73334.8,-3.61,-4.17,-4.13,0,*5B
1530410790.08,11488,14.69,73332.3,-3.61,-4.17,-4.17,0,*50
1530410791.28,11489,14.69,73334.3,-3.61,-4.17,-4.17,0,*51
1530410792.48,11490,14.69,73328.0,-3.61,-4.17,-4.13,0,*5D
1530410793.69,11491,14.69,73330.8,-3.65,-4.33,-4.21,0,*5F
1530410794.89,11492,14.69,73324.8,-3.61,-4.17,-4.25,0,*5A
1530410796.09,11493,14.69,73332.5,-3.61,-4.17,-4.17,0,*5A
1530410797.28,11494,14.69,73330.5,-3.61,-4.17,-4.17,0,*5D
1530410798.48,11495,14.75,73334.8,-3.61,-4.29,-4.25,0,*50
1530410799.69,11496,14.69,73334.3,-3.61,-4.25,-4.25,0,*5F
1530410800.89,11497,14.69,73338.5,-3.65,-4.29,-4.33,0,*51
1530410802.09,11498,14.69,73336.3,-3.65,-4.29,-4.17,0,*58
1530410803.3,11499,14.69,73336.0,-3.65,-4.33,-4.21,0,*57
1530410804.5,11500,14.69,73332.3,-3.65,-4.33,-4.29,0,*5E
1530410805.71,11501,14.75,73338.8,-3.65,-4.33,-4.29,0,*5F
1530410806.91,11502,14.69,73336.3,-3.65,-4.29,-4.29,0,*57
1530410808.11,11503,14.75,73336.5,-3.65,-4.29,-4.29,0,*56
1530410809.32,11504,14.69,73334.0,-3.65,-4.29,-4.29,0,*51
1530410810.52,11505,14.69,73332.0,-3.65,-4.29,-4.29,0,*50
1530410811.73,11506,14.69,73332.8,-3.65,-4.21,-4.21,0,*53
1530410812.95,11507,14.69,73328.3,-3.65,-4.21,-4.21,0,*52
1530410814.16,11508,14.69,73332.0,-3.65,-4.21,-4.21,0,*5D
1530410815.37,11509,14.69,73328.5,-3.65,-4.29,-4.21,0,*54
1530410816.57,11510,14.75,73336.5,-3.65,-4.21,-4.17,0,*51
1530410817.78,11511,14.69,73334.5,-3.65,-4.21,-4.21,0,*55
1530410819.0,11512,14.69,73334.0,-3.65,-4.21,-4.21,0,*56
1530410820.21,11513,14.69,73332.0,-3.65,-4.21,-4.21,0,*57
1530410821.42,11514,14.69,73330.8,-3.65,-4.21,-4.21,0,*50
1530410822.64,11515,14.69,73328.3,-3.65,-4.21,-4.21,0,*51
1530410823.85,11516,14.69,73334.3,-3.65,-4.21,-4.21,0,*52
1530410825.09,11517,14.69,73332.3,-3.67,-4.21,-4.21,0,*51
1530410826.3,11518,14.69,73332.3,-3.65,-4.33,-4.29,0,*57
1530410827.53,11519,14.69,73334.0,-3.67,-4.33,-4.29,0,*54
1530410828.74,11520,14.69,73332.8,-3.65,-4.29,-4.21,0,*5F
1530410829.94,11521,14.69,73330.8,-3.65,-4.29,-4.33,0,*5D
1530410831.12,11522,14.69,73330.0,-3.65,-4.45,-4.45,0,*55
1530410832.33,11523,14.69,73328.0,-3.65,-4.33,-4.29,0,*5F
1530410833.53,11524,14.69,73334.3,-3.65,-4.29,-4.29,0,*53
1530410834.75,11525,14.69,73328.5,-3.65,-4.21,-4.21,0,*52
1530410835.95,11526,14.69,73334.0,-3.65,-4.29,-4.33,0,*5A
1530410837.15,11527,14.69,73336.8,-3.61,-4.25,-4.17,0,*55
1530410838.35,11528,14.69,73332.0,-3.65,-4.33,-4.29,0,*54
1530410839.56,11529,14.69,73332.5,-3.65,-4.29,-4.21,0,*56
1530410840.76,11530,14.69,73330.3,-3.65,-4.29,-4.17,0,*5B
1530410841.97,11531,14.69,73326.8,-3.65,-4.21,-4.21,0,*57
1530410843.18,11532,14.69,73328.3,-3.65,-4.21,-4.21,0,*54
1530410844.39,11533,14.69,73328.0,-3.65,-4.21,-4.29,0,*5D
1530410845.6,11534,14.69,73334.0,-3.65,-4.29,-4.29,0,*52
1530410846.83,11535,14.69,73336.5,-3.67,-4.29,-4.29,0,*51
1530410848.06,11536,14.69,73332.0,-3.67,-4.29,-4.21,0,*5A
1530410849.27,11537,14.69,73334.8,-3.65,-4.21,-4.21,0,*51
1530410850.47,11538,14.69,73334.0,-3.61,-4.17,-4.17,0,*5A
1530410851.67,11539,14.69,73334.5,-3.65,-4.29,-4.21,0,*57
1530410852.91,11540,14.69,73334.5,-3.67,-4.21,-4.21,0,*53
1530410854.11,11541,14.69,73334.0,-3.61,-4.21,-4.17,0,*51
1530410855.31,11542,14.69,73338.3,-3.61,-4.25,-4.17,0,*56
1530410856.52,11543,14.69,73338.5,-3.65,-4.29,-4.21,0,*5A
1530410857.76,11544,14.69,73338.3,-3.67,-4.21,-4.21,0,*57
1530410858.96,11545,14.69,73338.3,-3.65,-4.21,-4.17,0,*51
1530410860.19,11546,14.69,73336.8,-3.67,-4.17,-4.21,0,*50
1530410861.4,11547,14.69,73338.0,-3.65,-4.33,-4.29,0,*5D
1530410862.6,11548,14.69,73340.8,-3.65,-4.29,-4.29,0,*59
1530410863.81,11549,14.69,73340.3,-3.65,-4.29,-4.29,0,*58
1530410865.01,11550,14.69,73334.5,-3.65,-4.33,-4.33,0,*50
1530410866.21,11551,14.69,73338.5,-3.65,-4.29,-4.29,0,*51
1530410867.42,11552,14.69,73334.8,-3.65,-4.33,-4.29,0,*59
1530410868.62,11553,14.69,73338.5,-3.65,-4.29,-4.33,0,*58
1530410869.82,11554,14.69,73334.8,-3.65,-4.29,-4.33,0,*5F
1530410871.02,11555,14.69,73334.8,-3.65,-4.29,-4.29,0,*55
1530410872.23,11556,14.69,73336.5,-3.65,-4.29,-4.21,0,*5E
1530410873.44,11557,14.69,73336.3,-3.65,-4.21,-4.29,0,*5F
1530410874.64,11558,14.69,73334.5,-3.65,-4.17,-4.17,0,*58
1530410875.87,11559,14.69,73342.3,-3.67,-4.29,-4.21,0,*53
1530410877.08,11560,14.69,73340.8,-3.65,-4.21,-4.21,0,*53
1530410878.29,11561,14.69,73342.0,-3.65,-4.21,-4.29,0,*5A
1530410879.5,11562,14.69,73336.3,-3.65,-4.21,-4.17,0,*54
1530410880.72,11563,14.69,73342.3,-3.67,-4.33,-4.33,0,*52
1530410881.93,11564,14.69,73336.5,-3.65,-4.33,-4.33,0,*57
1530410883.12,11565,14.69,73340.5,-3.65,-4.41,-4.45,0,*52
1530410884.33,11566,14.69,73338.3,-3.65,-4.41,-4.29,0,*5B
1530410885.53,11567,14.69,73338.8,-3.65,-4.29,-4.29,0,*54
1530410886.73,11568,14.69,73332.5,-3.65,-4.29,-4.29,0,*5B
1530410887.93,11569,14.69,73334.8,-3.65,-4.29,-4.33,0,*51
1530410889.14,11570,14.69,73338.8,-3.65,-4.33,-4.29,0,*59
1530410890.35,11571,14.69,73336.8,-3.65,-4.21,-4.29,0,*5B
1530410891.55,11572,14.69,73340.0,-3.65,-4.33,-4.29,0,*5B
1530410892.78,11573,14.69,73336.0,-3.67,-4.29,-4.29,0,*53
1530410893.99,11574,14.69,73336.3,-3.65,-4.33,-4.29,0,*5D
1530410895.2,11575,14.69,73334.5,-3.65,-4.29,-4.21,0,*5F
1530410896.4,11576,14.69,73332.5,-3.65,-4.33,-4.29,0,*5F
1530410897.6,11577,14.69,73334.3,-3.65,-4.29,-4.29,0,*55
1530410898.84,11578,14.69,73336.0,-3.67,-4.33,-4.21,0,*5B
1530410900.06,11579,14.69,73328.8,-3.67,-4.29,-4.17,0,*54
1530410901.29,11580,14.69,73332.0,-3.67,-4.21,-4.17,0,*5A
1530410902.53,11581,14.69,73332.8,-3.67,-4.21,-4.21,0,*5E